Location: ??? ????
(38.0580°N, 23.1536°E)
Time: 23:28:22
(UTC+00:00)

DMSP B5D1-3 - Pass Details

Date: 13 December 2025
Orbit: 758 x 773 km, 98.5° (Epoch: 14 January)

Event Time Altitude Azimuth Distance (km) Brightness Sun altitude
Exits shadow 17:15:22 67° 61° (ENE) 822 4.3 -24.2°
Maximum altitude 17:15:50 73° 102° (ESE) 797 4.3 -24.3°
Drops below altitude 10° 17:20:51 10° 187° (S) 2,279 7.1 -25.3°
Sets 17:23:08 0° 189° (S) 3,200 8.0 -25.7°
